,,,PA_Meas_PMT16A,,PR_Meas_QMR101_102,,RH_Meas_QMH101,,SR_Meas_QMS101,,TA_Meas_QMH101,,GenWind,,GenWind,
date,time,status,PA,status,PR,status,RH,status,SR,status,TA,status,DirAvg,status,SpdAvg,
2011-03-13, 00:00:04,VALID,999.488,VALID,0,VALID,92.5397,VALID,0,VALID,23.2702,VALID,74,VALID,0.435547,
2011-03-13, 00:01:04,VALID,999.455,VALID,0,VALID,92.5168,VALID,0,VALID,23.2524,VALID,74,VALID,0.40625,
2011-03-13, 00:02:04,VALID,999.447,VALID,0,VALID,92.5091,VALID,0.112286,VALID,23.2117,VALID,74,VALID,0.413281,
2011-03-13, 00:03:04,VALID,999.456,VALID,0,VALID,92.5091,VALID,0,VALID,23.2329,VALID,74,VALID,0.521094,
2011-03-13, 00:04:04,VALID,999.439,VALID,0,VALID,92.5091,VALID,0.112286,VALID,23.2329,VALID,74,VALID,0.272266,
2011-03-13, 00:05:04,VALID,999.454,VALID,0,VALID,92.5091,VALID,0,VALID,23.2329,VALID,74,VALID,0,
2011-03-13, 00:06:04,VALID,999.463,VALID,0,VALID,92.532,VALID,0,VALID,23.2134,VALID,74,VALID,0,
2011-03-13, 00:07:04,VALID,999.478,VALID,0,VALID,92.5244,VALID,0.112286,VALID,23.1531,VALID,74,VALID,0,
2011-03-13, 00:08:04,VALID,999.474,VALID,0,VALID,92.5473,VALID,0.112286,VALID,23.1336,VALID,74,VALID,0,
2011-03-13, 00:09:04,VALID,999.449,VALID,0,VALID,92.5244,VALID,0.112286,VALID,23.1354,VALID,74,VALID,0,
2011-03-13, 00:10:04,VALID,999.451,VALID,0,VALID,92.5473,VALID,0,VALID,23.1159,VALID,74,VALID,0,
2011-03-13, 00:11:04,VALID,999.461,VALID,0,VALID,92.5549,VALID,0.112286,VALID,23.0946,VALID,74,VALID,0,
2011-03-13, 00:12:04,VALID,999.397,VALID,0,VALID,92.5931,VALID,0,VALID,23.0946,VALID,74,VALID,0,
2011-03-13, 00:13:04,VALID,999.406,VALID,0,VALID,92.6083,VALID,0,VALID,23.1354,VALID,74,VALID,0,
2011-03-13, 00:14:04,VALID,999.392,VALID,0,VALID,92.6465,VALID,0.112286,VALID,23.1531,VALID,74,VALID,0.267188,
2011-03-13, 00:15:04,VALID,999.366,VALID,0,VALID,92.6694,VALID,0,VALID,23.1744,VALID,74,VALID,0.348437,
2011-03-13, 00:16:04,VALID,999.351,VALID,0,VALID,92.7075,VALID,0,VALID,23.2329,VALID,74,VALID,0.454688,
2011-03-13, 00:17:04,VALID,999.316,VALID,0,VALID,92.738,VALID,0.112286,VALID,23.2117,VALID,74,VALID,0.613281,
2011-03-13, 00:18:04,VALID,999.302,VALID,0,VALID,92.7457,VALID,0.112286,VALID,23.2507,VALID,108,VALID,0.713281,
2011-03-13, 00:19:04,VALID,999.279,VALID,0,VALID,92.7762,VALID,0,VALID,23.2915,VALID,117,VALID,0.751172,
2011-03-13, 00:20:04,VALID,999.294,VALID,0,VALID,92.7838,VALID,0,VALID,23.2897,VALID,117,VALID,0.753125,
2011-03-13, 00:21:04,VALID,999.269,VALID,0,VALID,92.7838,VALID,0,VALID,23.3092,VALID,117,VALID,0.732422,
2011-03-13, 00:22:04,VALID,999.271,VALID,0,VALID,92.7914,VALID,0,VALID,23.2897,VALID,117,VALID,0.771094,
2011-03-13, 00:23:04,VALID,999.28,VALID,0,VALID,92.7914,VALID,0.112286,VALID,23.311,VALID,117,VALID,0.608984,
2011-03-13, 00:24:04,VALID,999.275,VALID,0,VALID,92.738,VALID,0.112286,VALID,23.2702,VALID,117,VALID,0.58125,
2011-03-13, 00:25:04,VALID,999.236,VALID,0,VALID,92.7304,VALID,0,VALID,23.311,VALID,117,VALID,0.297266,
2011-03-13, 00:26:04,VALID,999.238,VALID,0,VALID,92.7228,VALID,0,VALID,23.2507,VALID,117,VALID,0.260156,
2011-03-13, 00:27:04,VALID,999.252,VALID,0,VALID,92.6923,VALID,0.112286,VALID,23.2507,VALID,117,VALID,0,
2011-03-13, 00:28:04,VALID,999.244,VALID,0,VALID,92.677,VALID,0,VALID,23.2117,VALID,117,VALID,0,
2011-03-13, 00:29:04,VALID,999.225,VALID,0,VALID,92.6236,VALID,0,VALID,23.1744,VALID,117,VALID,0,
2011-03-13, 00:30:04,VALID,999.249,VALID,0,VALID,92.6083,VALID,0,VALID,23.1549,VALID,117,VALID,0.265625,
2011-03-13, 00:31:04,VALID,999.259,VALID,0,VALID,92.5931,VALID,0,VALID,23.1744,VALID,117,VALID,0.306641,
2011-03-13, 00:32:04,VALID,999.284,VALID,0,VALID,92.5854,VALID,0,VALID,23.1744,VALID,117,VALID,0.333203,
2011-03-13, 00:33:04,VALID,999.279,VALID,0,VALID,92.5702,VALID,0,VALID,23.1744,VALID,117,VALID,0.323047,
2011-03-13, 00:34:04,VALID,999.283,VALID,0,VALID,92.5778,VALID,0,VALID,23.1957,VALID,117,VALID,0.293359,
2011-03-13, 00:35:04,VALID,999.283,VALID,0,VALID,92.5931,VALID,0,VALID,23.1939,VALID,117,VALID,0.653516,
2011-03-13, 00:36:04,VALID,999.279,VALID,0,VALID,92.6007,VALID,0,VALID,23.2347,VALID,117,VALID,0.539844,
2011-03-13, 00:37:04,VALID,999.284,VALID,0,VALID,92.6083,VALID,0,VALID,23.2737,VALID,117,VALID,0.505859,
2011-03-13, 00:38:04,VALID,999.238,VALID,0,VALID,92.6312,VALID,0,VALID,23.2524,VALID,117,VALID,0.541406,
2011-03-13, 00:39:04,VALID,999.232,VALID,0,VALID,92.6312,VALID,0,VALID,23.2524,VALID,117,VALID,0.471484,
2011-03-13, 00:40:04,VALID,999.252,VALID,0,VALID,92.6388,VALID,0,VALID,23.2737,VALID,117,VALID,0.330859,
2011-03-13, 00:41:04,VALID,999.214,VALID,0,VALID,92.6312,VALID,0,VALID,23.2719,VALID,117,VALID,0.416797,
2011-03-13, 00:42:04,VALID,999.19,VALID,0,VALID,92.6388,VALID,0,VALID,23.2719,VALID,117,VALID,0.497656,
2011-03-13, 00:43:04,VALID,999.18,VALID,0,VALID,92.6388,VALID,0,VALID,23.2719,VALID,117,VALID,0.598437,
2011-03-13, 00:44:04,VALID,999.143,VALID,0,VALID,92.6617,VALID,0,VALID,23.2915,VALID,117,VALID,0.588281,
2011-03-13, 00:45:04,VALID,999.141,VALID,0,VALID,92.6694,VALID,0,VALID,23.2915,VALID,104,VALID,0.665625,
2011-03-13, 00:46:04,VALID,999.142,VALID,0,VALID,92.6694,VALID,0,VALID,23.311,VALID,104,VALID,0.653516,
2011-03-13, 00:47:04,VALID,999.13,VALID,0,VALID,92.6617,VALID,0,VALID,23.311,VALID,104,VALID,0.61875,
2011-03-13, 00:48:04,VALID,999.103,VALID,0,VALID,92.6465,VALID,0,VALID,23.2897,VALID,104,VALID,0.478516,
2011-03-13, 00:49:04,VALID,999.051,VALID,0,VALID,92.6541,VALID,0,VALID,23.2915,VALID,104,VALID,0.437109,
2011-03-13, 00:50:04,VALID,999.036,VALID,0,VALID,92.6465,VALID,0,VALID,23.311,VALID,104,VALID,0.457031,
2011-03-13, 00:51:04,VALID,999.012,VALID,0,VALID,92.6541,VALID,0,VALID,23.2915,VALID,104,VALID,0.466406,
2011-03-13, 00:52:04,VALID,998.994,VALID,0,VALID,92.6388,VALID,0,VALID,23.2507,VALID,104,VALID,0.626172,
2011-03-13, 00:53:04,VALID,998.97,VALID,0,VALID,92.6541,VALID,0,VALID,23.2117,VALID,52,VALID,0.799219,
2011-03-13, 00:54:04,VALID,998.964,VALID,0,VALID,92.6541,VALID,0,VALID,23.1921,VALID,36,VALID,0.911328,
2011-03-13, 00:55:04,VALID,998.958,VALID,0,VALID,92.6541,VALID,0,VALID,23.1921,VALID,36,VALID,0.959766,
2011-03-13, 00:56:04,VALID,998.996,VALID,0,VALID,92.6236,VALID,0,VALID,23.1744,VALID,36,VALID,0.944922,
2011-03-13, 00:57:04,VALID,998.966,VALID,0,VALID,92.6465,VALID,0,VALID,23.1354,VALID,36,VALID,0.899219,
2011-03-13, 00:58:04,VALID,998.952,VALID,0,VALID,92.6388,VALID,0,VALID,23.0964,VALID,36,VALID,0.921484,
2011-03-13, 00:59:04,VALID,998.922,VALID,0,VALID,92.6312,VALID,0,VALID,23.0361,VALID,36,VALID,0.875391,
2011-03-13, 01:00:04,VALID,998.882,VALID,0,VALID,92.6236,VALID,0.112286,VALID,23.0378,VALID,36,VALID,0.925,
2011-03-13, 01:01:04,VALID,998.86,VALID,0,VALID,92.6694,VALID,0,VALID,23.0573,VALID,36,VALID,0.867969,
2011-03-13, 01:02:04,VALID,998.837,VALID,0,VALID,92.6694,VALID,0,VALID,23.0361,VALID,36,VALID,0.790625,
2011-03-13, 01:03:04,VALID,998.763,VALID,0,VALID,92.6846,VALID,0,VALID,22.9971,VALID,36,VALID,0.796875,
2011-03-13, 01:04:04,VALID,998.779,VALID,0,VALID,92.6694,VALID,0,VALID,23.0183,VALID,36,VALID,0.715625,
2011-03-13, 01:05:04,VALID,998.741,VALID,0,VALID,92.6846,VALID,0,VALID,22.9581,VALID,36,VALID,0.773438,
2011-03-13, 01:06:04,VALID,998.707,VALID,0,VALID,92.6923,VALID,0,VALID,22.9403,VALID,36,VALID,0.721875,
2011-03-13, 01:07:04,VALID,998.689,VALID,0,VALID,92.7075,VALID,0,VALID,22.9385,VALID,36,VALID,0.749219,
2011-03-13, 01:08:04,VALID,998.682,VALID,0,VALID,92.7151,VALID,0,VALID,22.9793,VALID,36,VALID,0.798047,
2011-03-13, 01:09:04,VALID,998.7,VALID,0,VALID,92.7609,VALID,0,VALID,23.0183,VALID,36,VALID,0.734766,
2011-03-13, 01:10:04,VALID,998.718,VALID,0,VALID,92.7762,VALID,0,VALID,23.0378,VALID,36,VALID,0.579687,
2011-03-13, 01:11:04,VALID,998.747,VALID,0,VALID,92.8143,VALID,0,VALID,23.0378,VALID,36,VALID,0.539453,
2011-03-13, 01:12:04,VALID,998.738,VALID,0,VALID,92.7991,VALID,0,VALID,23.0378,VALID,36,VALID,0.555469,
2011-03-13, 01:13:04,VALID,998.792,VALID,0,VALID,92.822,VALID,0.112286,VALID,23.0166,VALID,36,VALID,0.657812,
2011-03-13, 01:14:04,VALID,998.795,VALID,0,VALID,92.8525,VALID,0,VALID,23.0591,VALID,36,VALID,0.6875,
2011-03-13, 01:15:04,VALID,998.814,VALID,0,VALID,92.8601,VALID,0,VALID,23.0378,VALID,36,VALID,0.608984,
2011-03-13, 01:16:04,VALID,998.803,VALID,0,VALID,92.8525,VALID,0,VALID,23.0378,VALID,36,VALID,0.517969,
2011-03-13, 01:17:04,VALID,998.774,VALID,0,VALID,92.8601,VALID,0,VALID,23.0378,VALID,36,VALID,0.390234,
2011-03-13, 01:18:04,VALID,998.807,VALID,0,VALID,92.8754,VALID,0,VALID,23.0396,VALID,36,VALID,0.302344,
2011-03-13, 01:19:04,VALID,998.806,VALID,0,VALID,92.8754,VALID,0,VALID,22.9988,VALID,36,VALID,0.305859,
2011-03-13, 01:20:04,VALID,998.79,VALID,0,VALID,92.9059,VALID,0,VALID,22.9988,VALID,36,VALID,0.348047,
2011-03-13, 01:21:04,VALID,998.801,VALID,0,VALID,92.9135,VALID,0,VALID,22.9988,VALID,36,VALID,0.313281,
2011-03-13, 01:22:04,VALID,998.805,VALID,0,VALID,92.9135,VALID,0,VALID,23.0006,VALID,36,VALID,0.267188,
2011-03-13, 01:23:04,VALID,998.791,VALID,0,VALID,92.9135,VALID,0,VALID,22.9793,VALID,36,VALID,0.298828,
2011-03-13, 01:24:04,VALID,998.779,VALID,0,VALID,92.9211,VALID,0,VALID,22.9793,VALID,36,VALID,0.378125,
2011-03-13, 01:25:04,VALID,998.796,VALID,0,VALID,92.9364,VALID,0,VALID,22.9793,VALID,36,VALID,0.498437,
2011-03-13, 01:26:04,VALID,998.797,VALID,0,VALID,92.9288,VALID,0,VALID,22.9988,VALID,36,VALID,0.588281,
2011-03-13, 01:27:04,VALID,998.782,VALID,0,VALID,92.944,VALID,0,VALID,23.0183,VALID,36,VALID,0.700781,
2011-03-13, 01:28:04,VALID,998.808,VALID,0,VALID,92.9593,VALID,0,VALID,23.0183,VALID,36,VALID,0.651172,
2011-03-13, 01:29:04,VALID,998.824,VALID,0,VALID,92.9822,VALID,0,VALID,23.0396,VALID,36,VALID,0.639063,
2011-03-13, 01:30:04,VALID,998.807,VALID,0,VALID,92.9745,VALID,0,VALID,23.0006,VALID,36,VALID,0.551953,
2011-03-13, 01:31:04,VALID,998.819,VALID,0,VALID,92.9822,VALID,0,VALID,22.9598,VALID,36,VALID,0.494531,
2011-03-13, 01:32:04,VALID,998.789,VALID,0,VALID,92.9898,VALID,0,VALID,22.9793,VALID,36,VALID,0.495313,
2011-03-13, 01:33:04,VALID,998.725,VALID,0,VALID,92.9974,VALID,0,VALID,22.9988,VALID,36,VALID,0.506641,
2011-03-13, 01:34:04,VALID,998.726,VALID,0,VALID,92.9974,VALID,0,VALID,22.9988,VALID,36,VALID,0.548828,
2011-03-13, 01:35:04,VALID,998.683,VALID,0,VALID,93.0051,VALID,0,VALID,23.0201,VALID,36,VALID,0.569141,
2011-03-13, 01:36:04,VALID,998.666,VALID,0,VALID,93.0127,VALID,0,VALID,22.9988,VALID,36,VALID,0.569141,
2011-03-13, 01:37:04,VALID,998.66,VALID,0,VALID,93.0356,VALID,0,VALID,22.9793,VALID,36,VALID,0.507031,
2011-03-13, 01:38:04,VALID,998.648,VALID,0,VALID,93.028,VALID,0,VALID,22.9793,VALID,36,VALID,0.497266,
2011-03-13, 01:39:04,VALID,998.641,VALID,0,VALID,93.028,VALID,0,VALID,22.9615,VALID,36,VALID,0.446484,
2011-03-13, 01:40:04,VALID,998.615,VALID,0,VALID,93.0127,VALID,0,VALID,22.9403,VALID,36,VALID,0.490625,
2011-03-13, 01:41:04,VALID,998.625,VALID,0,VALID,93.0356,VALID,0,VALID,22.942,VALID,36,VALID,0.460156,
2011-03-13, 01:42:04,VALID,998.646,VALID,0,VALID,93.0356,VALID,0,VALID,22.9403,VALID,36,VALID,0.524219,
2011-03-13, 01:43:04,VALID,998.662,VALID,0,VALID,93.0585,VALID,0,VALID,22.9615,VALID,36,VALID,0.541406,
2011-03-13, 01:44:04,VALID,998.632,VALID,0,VALID,93.0508,VALID,0,VALID,22.9403,VALID,36,VALID,0.546484,
2011-03-13, 01:45:04,VALID,998.632,VALID,0,VALID,93.0737,VALID,0,VALID,22.9811,VALID,36,VALID,0.583984,
2011-03-13, 01:46:04,VALID,998.588,VALID,0,VALID,93.0814,VALID,0,VALID,22.9793,VALID,36,VALID,0.664453,
2011-03-13, 01:47:04,VALID,998.579,VALID,0,VALID,93.0966,VALID,0,VALID,22.9988,VALID,67,VALID,0.790625,
2011-03-13, 01:48:04,VALID,998.544,VALID,0,VALID,93.0814,VALID,0,VALID,23.0006,VALID,88,VALID,0.926953,
2011-03-13, 01:49:04,VALID,998.523,VALID,0,VALID,93.0737,VALID,0,VALID,22.9793,VALID,95,VALID,1.05039,
2011-03-13, 01:50:04,VALID,998.496,VALID,0,VALID,93.0814,VALID,0,VALID,22.9208,VALID,97,VALID,0.950781,
2011-03-13, 01:51:04,VALID,998.502,VALID,0,VALID,93.0814,VALID,0,VALID,22.9013,VALID,98,VALID,1.0043,
2011-03-13, 01:52:04,VALID,998.501,VALID,0,VALID,93.089,VALID,0,VALID,22.8818,VALID,98,VALID,0.942969,
2011-03-13, 01:53:04,VALID,998.512,VALID,0,VALID,93.089,VALID,0,VALID,22.8623,VALID,94,VALID,0.923437,
2011-03-13, 01:54:04,VALID,998.475,VALID,0,VALID,93.0966,VALID,0,VALID,22.8835,VALID,86,VALID,0.891797,
2011-03-13, 01:55:04,VALID,998.471,VALID,0,VALID,93.089,VALID,0,VALID,22.864,VALID,78,VALID,0.675391,
2011-03-13, 01:56:04,VALID,998.459,VALID,0,VALID,93.0814,VALID,0,VALID,22.864,VALID,74,VALID,0.511719,
2011-03-13, 01:57:04,VALID,998.426,VALID,0,VALID,93.1043,VALID,0,VALID,22.825,VALID,71,VALID,0.609766,
2011-03-13, 01:58:04,VALID,998.433,VALID,0,VALID,93.0814,VALID,0,VALID,22.7647,VALID,71,VALID,0.380469,
2011-03-13, 01:59:04,VALID,998.401,VALID,0,VALID,93.0966,VALID,0,VALID,22.7664,VALID,72,VALID,0.623438,
2011-03-13, 02:00:04,VALID,998.4,VALID,0,VALID,93.1119,VALID,0,VALID,22.7257,VALID,72,VALID,0.427734,
2011-03-13, 02:01:04,VALID,998.379,VALID,0,VALID,93.0966,VALID,0,VALID,22.7469,VALID,83,VALID,0.797656,
2011-03-13, 02:02:04,VALID,998.383,VALID,0,VALID,93.0966,VALID,0,VALID,22.7469,VALID,94,VALID,0.558984,
2011-03-13, 02:03:04,VALID,998.342,VALID,0,VALID,93.1043,VALID,0,VALID,22.7062,VALID,94,VALID,0.390625,
2011-03-13, 02:04:04,VALID,998.346,VALID,0,VALID,93.0966,VALID,0,VALID,22.7062,VALID,94,VALID,0,
2011-03-13, 02:05:04,VALID,998.321,VALID,0,VALID,93.1043,VALID,0,VALID,22.7062,VALID,94,VALID,0,
2011-03-13, 02:06:04,VALID,998.3,VALID,0,VALID,93.0966,VALID,0,VALID,22.7274,VALID,94,VALID,0,
2011-03-13, 02:07:04,VALID,998.295,VALID,0,VALID,93.0966,VALID,0,VALID,22.7469,VALID,94,VALID,0,
2011-03-13, 02:08:04,VALID,998.282,VALID,0,VALID,93.1195,VALID,0,VALID,22.7664,VALID,94,VALID,0,
2011-03-13, 02:09:04,VALID,998.242,VALID,0,VALID,93.1119,VALID,0,VALID,22.786,VALID,94,VALID,0,
2011-03-13, 02:10:04,VALID,998.245,VALID,0,VALID,93.1043,VALID,0,VALID,22.8055,VALID,94,VALID,0,
2011-03-13, 02:11:04,VALID,998.251,VALID,0,VALID,93.1119,VALID,0,VALID,22.825,VALID,94,VALID,0,
2011-03-13, 02:12:04,VALID,998.241,VALID,0,VALID,93.1348,VALID,0,VALID,22.8037,VALID,94,VALID,0,
2011-03-13, 02:13:04,VALID,998.222,VALID,0,VALID,93.1195,VALID,0,VALID,22.786,VALID,94,VALID,0,
2011-03-13, 02:14:04,VALID,998.212,VALID,0,VALID,93.1271,VALID,0,VALID,22.7842,VALID,94,VALID,0,
2011-03-13, 02:15:04,VALID,998.167,VALID,0,VALID,93.1195,VALID,0,VALID,22.7842,VALID,94,VALID,0,
2011-03-13, 02:16:04,VALID,998.173,VALID,0,VALID,93.1271,VALID,0.112286,VALID,22.7435,VALID,94,VALID,0,
2011-03-13, 02:17:04,VALID,998.17,VALID,0,VALID,93.1348,VALID,0,VALID,22.7257,VALID,94,VALID,0.158203,
2011-03-13, 02:18:04,VALID,998.154,VALID,0,VALID,93.15,VALID,0,VALID,22.7257,VALID,108,VALID,0.523438,
2011-03-13, 02:19:04,VALID,998.134,VALID,0,VALID,93.1424,VALID,0,VALID,22.7257,VALID,132,VALID,0.807813,
2011-03-13, 02:20:04,VALID,998.162,VALID,0,VALID,93.1424,VALID,0,VALID,22.7452,VALID,131,VALID,0.777734,
2011-03-13, 02:21:04,VALID,998.195,VALID,0,VALID,93.1424,VALID,0,VALID,22.8037,VALID,129,VALID,0.603516,
2011-03-13, 02:22:04,VALID,998.176,VALID,0,VALID,93.1424,VALID,0,VALID,22.802,VALID,130,VALID,0.849219,
2011-03-13, 02:23:04,VALID,998.221,VALID,0,VALID,93.15,VALID,0,VALID,22.8232,VALID,131,VALID,0.416016,
2011-03-13, 02:24:04,VALID,998.186,VALID,0,VALID,93.1348,VALID,0,VALID,22.8427,VALID,131,VALID,0.369531,
2011-03-13, 02:25:04,VALID,998.224,VALID,0,VALID,93.1424,VALID,0,VALID,22.841,VALID,131,VALID,0.084375,
2011-03-13, 02:26:04,VALID,998.212,VALID,0,VALID,93.1424,VALID,0,VALID,22.8623,VALID,131,VALID,0,
2011-03-13, 02:27:04,VALID,998.207,VALID,0,VALID,93.1043,VALID,0,VALID,22.8215,VALID,131,VALID,0,
2011-03-13, 02:28:04,VALID,998.199,VALID,0,VALID,93.1119,VALID,0,VALID,22.8215,VALID,131,VALID,0,
2011-03-13, 02:29:04,VALID,998.159,VALID,0,VALID,93.0966,VALID,0,VALID,22.802,VALID,131,VALID,0.34375,
2011-03-13, 02:30:04,VALID,998.131,VALID,0,VALID,93.0737,VALID,0,VALID,22.8232,VALID,34,VALID,0.435937,
2011-03-13, 02:31:04,VALID,998.158,VALID,0,VALID,93.0814,VALID,0,VALID,22.8232,VALID,34,VALID,0.501953,
2011-03-13, 02:32:04,VALID,998.127,VALID,0,VALID,93.0585,VALID,0,VALID,22.8427,VALID,34,VALID,0.648438,
2011-03-13, 02:33:04,VALID,998.106,VALID,0,VALID,93.0508,VALID,0,VALID,22.8623,VALID,58,VALID,0.896484,
2011-03-13, 02:34:04,VALID,998.138,VALID,0,VALID,93.0356,VALID,0,VALID,22.8623,VALID,58,VALID,0.766406,
2011-03-13, 02:35:04,VALID,998.117,VALID,0,VALID,93.0127,VALID,0,VALID,22.8623,VALID,58,VALID,0.853516,
2011-03-13, 02:36:04,VALID,998.124,VALID,0,VALID,93.0127,VALID,0,VALID,22.8427,VALID,71,VALID,0.928125,
2011-03-13, 02:37:04,VALID,998.099,VALID,0,VALID,92.9898,VALID,0,VALID,22.8427,VALID,87,VALID,0.984766,
2011-03-13, 02:38:04,VALID,998.115,VALID,0,VALID,92.944,VALID,0,VALID,22.8232,VALID,89,VALID,1.08672,
2011-03-13, 02:39:04,VALID,998.079,VALID,0,VALID,92.9288,VALID,0,VALID,22.8232,VALID,89,VALID,1.12969,
2011-03-13, 02:40:04,VALID,998.069,VALID,0,VALID,92.9059,VALID,0,VALID,22.8232,VALID,89,VALID,1.12422,
2011-03-13, 02:41:04,VALID,998.07,VALID,0,VALID,92.8983,VALID,0,VALID,22.8623,VALID,89,VALID,0.697266,
2011-03-13, 02:42:04,VALID,998.037,VALID,0,VALID,92.8448,VALID,0,VALID,22.8623,VALID,91,VALID,0.854688,
2011-03-13, 02:43:04,VALID,998.035,VALID,0,VALID,92.8448,VALID,0,VALID,22.8623,VALID,95,VALID,0.441797,
2011-03-13, 02:44:04,VALID,998.038,VALID,0,VALID,92.7838,VALID,0,VALID,22.8835,VALID,115,VALID,0.529688,
2011-03-13, 02:45:04,VALID,998.023,VALID,0,VALID,92.7609,VALID,0,VALID,22.8835,VALID,116,VALID,0.0445312,
2011-03-13, 02:46:04,VALID,998.01,VALID,0,VALID,92.7228,VALID,0,VALID,22.864,VALID,116,VALID,0,
2011-03-13, 02:47:04,VALID,997.993,VALID,0,VALID,92.7151,VALID,0,VALID,22.864,VALID,116,VALID,0,
2011-03-13, 02:48:04,VALID,997.987,VALID,0,VALID,92.6617,VALID,0,VALID,22.8445,VALID,116,VALID,0,
2011-03-13, 02:49:04,VALID,997.979,VALID,0,VALID,92.6236,VALID,0,VALID,22.8232,VALID,116,VALID,0,
2011-03-13, 02:50:04,VALID,998.005,VALID,0,VALID,92.6007,VALID,0,VALID,22.8232,VALID,116,VALID,0,
2011-03-13, 02:51:04,VALID,997.986,VALID,0,VALID,92.5626,VALID,0,VALID,22.8037,VALID,116,VALID,0,
2011-03-13, 02:52:04,VALID,997.976,VALID,0,VALID,92.5244,VALID,0,VALID,22.7842,VALID,116,VALID,0,
2011-03-13, 02:53:04,VALID,997.977,VALID,0,VALID,92.5015,VALID,0,VALID,22.7842,VALID,116,VALID,0,
2011-03-13, 02:54:04,VALID,997.987,VALID,0,VALID,92.5015,VALID,0,VALID,22.8055,VALID,116,VALID,0,
2011-03-13, 02:55:04,VALID,998.001,VALID,0,VALID,92.5168,VALID,0,VALID,22.786,VALID,116,VALID,0,
2011-03-13, 02:56:04,VALID,997.992,VALID,0,VALID,92.5091,VALID,0,VALID,22.8055,VALID,116,VALID,0,
2011-03-13, 02:57:04,VALID,997.996,VALID,0,VALID,92.5244,VALID,0,VALID,22.7842,VALID,116,VALID,0,
2011-03-13, 02:58:04,VALID,997.936,VALID,0,VALID,92.5473,VALID,0,VALID,22.825,VALID,72,VALID,0.682031,
2011-03-13, 02:59:04,VALID,997.92,VALID,0,VALID,92.5626,VALID,0,VALID,22.8232,VALID,69,VALID,0.500781,
2011-03-13, 03:00:04,VALID,997.896,VALID,0,VALID,92.5702,VALID,0,VALID,22.864,VALID,69,VALID,0.532422,
2011-03-13, 03:01:04,VALID,997.861,VALID,0,VALID,92.5931,VALID,0,VALID,22.8623,VALID,92,VALID,0.332812,
2011-03-13, 03:02:04,VALID,997.872,VALID,0,VALID,92.5854,VALID,0,VALID,22.903,VALID,92,VALID,0.294922,
2011-03-13, 03:03:04,VALID,997.846,VALID,0,VALID,92.5626,VALID,0,VALID,22.8835,VALID,92,VALID,0,
2011-03-13, 03:04:04,VALID,997.823,VALID,0,VALID,92.5626,VALID,0,VALID,22.864,VALID,92,VALID,0.343359,
2011-03-13, 03:05:04,VALID,997.813,VALID,0,VALID,92.5397,VALID,0,VALID,22.864,VALID,92,VALID,0.356641,
2011-03-13, 03:06:04,VALID,997.802,VALID,0,VALID,92.532,VALID,0,VALID,22.8445,VALID,92,VALID,0.31875,
2011-03-13, 03:07:04,VALID,997.798,VALID,0,VALID,92.5168,VALID,0,VALID,22.8232,VALID,92,VALID,0.248437,
2011-03-13, 03:08:04,VALID,997.795,VALID,0,VALID,92.5473,VALID,0,VALID,22.8037,VALID,92,VALID,0.362109,
2011-03-13, 03:09:04,VALID,997.779,VALID,0,VALID,92.5244,VALID,0,VALID,22.8055,VALID,92,VALID,0.207422,
2011-03-13, 03:10:04,VALID,997.775,VALID,0,VALID,92.5091,VALID,0,VALID,22.786,VALID,92,VALID,0.530078,
2011-03-13, 03:11:04,VALID,997.796,VALID,0,VALID,92.532,VALID,0,VALID,22.786,VALID,103,VALID,0.871875,
2011-03-13, 03:12:04,VALID,997.792,VALID,0,VALID,92.5168,VALID,0,VALID,22.8055,VALID,103,VALID,1.07773,
2011-03-13, 03:13:04,VALID,997.774,VALID,0,VALID,92.5473,VALID,0,VALID,22.8055,VALID,103,VALID,0.830469,
2011-03-13, 03:14:04,VALID,997.756,VALID,0,VALID,92.5244,VALID,0,VALID,22.8037,VALID,103,VALID,0.705078,
2011-03-13, 03:15:04,VALID,997.768,VALID,0,VALID,92.5626,VALID,0,VALID,22.825,VALID,103,VALID,0.521094,
2011-03-13, 03:16:04,VALID,997.755,VALID,0,VALID,92.532,VALID,0,VALID,22.8445,VALID,103,VALID,0.513281,
2011-03-13, 03:17:04,VALID,997.77,VALID,0,VALID,92.5397,VALID,0,VALID,22.825,VALID,69,VALID,0.525,
2011-03-13, 03:18:04,VALID,997.75,VALID,0,VALID,92.5244,VALID,0,VALID,22.8445,VALID,69,VALID,0.546875,
2011-03-13, 03:19:04,VALID,997.738,VALID,0,VALID,92.5015,VALID,0,VALID,22.8055,VALID,69,VALID,0.379687,
2011-03-13, 03:20:04,VALID,997.732,VALID,0,VALID,92.4939,VALID,0,VALID,22.7842,VALID,69,VALID,0.25,
2011-03-13, 03:21:04,VALID,997.745,VALID,0,VALID,92.4405,VALID,0,VALID,22.7664,VALID,69,VALID,0.403125,
2011-03-13, 03:22:04,VALID,997.715,VALID,0,VALID,92.4634,VALID,0,VALID,22.7664,VALID,69,VALID,0.39375,
2011-03-13, 03:23:04,VALID,997.763,VALID,0,VALID,92.4481,VALID,0,VALID,22.7274,VALID,69,VALID,0.603906,
2011-03-13, 03:24:04,VALID,997.741,VALID,0,VALID,92.4481,VALID,0,VALID,22.7079,VALID,40,VALID,0.629297,
2011-03-13, 03:25:04,VALID,997.747,VALID,0,VALID,92.4328,VALID,0,VALID,22.6494,VALID,40,VALID,0.567187,
2011-03-13, 03:26:04,VALID,997.756,VALID,0,VALID,92.4405,VALID,0,VALID,22.6299,VALID,40,VALID,0.591016,
2011-03-13, 03:27:04,VALID,997.757,VALID,0,VALID,92.4634,VALID,0,VALID,22.6087,VALID,40,VALID,0.388281,
2011-03-13, 03:28:04,VALID,997.796,VALID,0,VALID,92.4863,VALID,0,VALID,22.5714,VALID,40,VALID,0.325391,
2011-03-13, 03:29:04,VALID,997.747,VALID,0,VALID,92.5015,VALID,0,VALID,22.5501,VALID,40,VALID,0.529297,
2011-03-13, 03:30:04,VALID,997.792,VALID,0,VALID,92.5549,VALID,0,VALID,22.5892,VALID,40,VALID,0.461719,
2011-03-13, 03:31:04,VALID,997.798,VALID,0,VALID,92.5854,VALID,0,VALID,22.6087,VALID,118,VALID,0.753125,
2011-03-13, 03:32:04,VALID,997.785,VALID,0,VALID,92.6236,VALID,0,VALID,22.6282,VALID,124,VALID,0.596094,
2011-03-13, 03:33:04,VALID,997.79,VALID,0,VALID,92.6617,VALID,0,VALID,22.6282,VALID,124,VALID,0.597266,
2011-03-13, 03:34:04,VALID,997.768,VALID,0,VALID,92.6999,VALID,0,VALID,22.6282,VALID,128,VALID,0.820313,
2011-03-13, 03:35:04,VALID,997.768,VALID,0,VALID,92.677,VALID,0,VALID,22.6282,VALID,126,VALID,0.780859,
2011-03-13, 03:36:04,VALID,997.778,VALID,0,VALID,92.6923,VALID,0,VALID,22.6299,VALID,141,VALID,0.951172,
2011-03-13, 03:37:04,VALID,997.763,VALID,0,VALID,92.677,VALID,0,VALID,22.6282,VALID,143,VALID,0.492578,
2011-03-13, 03:38:04,VALID,997.772,VALID,0,VALID,92.6694,VALID,0,VALID,22.6477,VALID,143,VALID,0.462891,
2011-03-13, 03:39:04,VALID,997.792,VALID,0,VALID,92.6846,VALID,0,VALID,22.6884,VALID,183,VALID,0.523438,
2011-03-13, 03:40:05,VALID,997.788,VALID,0,VALID,92.6465,VALID,0,VALID,22.7079,VALID,181,VALID,0.555859,
2011-03-13, 03:41:05,VALID,997.783,VALID,0,VALID,92.6694,VALID,0,VALID,22.6884,VALID,160,VALID,0.521484,
2011-03-13, 03:42:05,VALID,997.808,VALID,0,VALID,92.6465,VALID,0,VALID,22.6867,VALID,162,VALID,0.274219,
2011-03-13, 03:43:04,VALID,997.826,VALID,0,VALID,92.6312,VALID,0,VALID,22.7257,VALID,168,VALID,0.120703,
2011-03-13, 03:44:05,VALID,997.844,VALID,0,VALID,92.6083,VALID,0,VALID,22.7257,VALID,168,VALID,0.186719,
2011-03-13, 03:45:05,VALID,997.835,VALID,0,VALID,92.5549,VALID,0,VALID,22.7257,VALID,168,VALID,0.198828,
2011-03-13, 03:46:05,VALID,997.841,VALID,0,VALID,92.5091,VALID,0,VALID,22.7257,VALID,168,VALID,0.441797,
2011-03-13, 03:47:05,VALID,997.848,VALID,0,VALID,92.4634,VALID,0,VALID,22.7257,VALID,168,VALID,0.504687,